When you browse on this site, cookies collect data to enhance your experience and personalize the content and advertising you see.
Visit our Privacy Policy to learn more. By continuing to use the site, you agree to this use of cookies and data.
  • în România
  • Lista ţărilor
  • Pe 7 zile
  • Temperatura apei
  • Hartă satelitară
  • Meteo pe hartă
  • Widget-uri
  • user-avatar
    Intrare

    Meteo pe oră la Sannois

    Astăzi, 25 Iunie, Marţi

    Timp Temperatura Precipitaţii Vânt Presiune Umiditate
    00:00 +24°C° 0 mm 2 m/s 755 mmHg 88%
    01:00 +24°C° 0 mm 2 m/s 755 mmHg 89%
    02:00 +23°C° 0 mm 1 m/s 754 mmHg 90%
    03:00 +23°C° 0 mm 1 m/s 754 mmHg 92%
    04:00 +23°C° 0 mm 1 m/s 754 mmHg 90%
    05:00 +24°C° 0 mm 1 m/s 755 mmHg 89%
    06:00 +24°C° 0 mm 1 m/s 755 mmHg 88%
    07:00 +25°C° 0 mm 2 m/s 755 mmHg 83%
    08:00 +26°C° 0 mm 2 m/s 755 mmHg 78%
    09:00 +27°C° 0 mm 3 m/s 756 mmHg 74%
    10:00 +29°C° 0 mm 3 m/s 756 mmHg 66%
    11:00 +30°C° 0 mm 3 m/s 757 mmHg 58%
    12:00 +33°C° 0 mm 3 m/s 757 mmHg 50%
    13:00 +33°C° 0 mm 3 m/s 757 mmHg 49%
    14:00 +33°C° 0 mm 3 m/s 757 mmHg 48%
    15:00 +34°C° 0 mm 3 m/s 758 mmHg 47%
    16:00 +33°C° 0 mm 3 m/s 758 mmHg 50%
    17:00 +31°C° 0 mm 2 m/s 758 mmHg 54%
    18:00 +31°C° 0 mm 2 m/s 758 mmHg 58%
    19:00 +29°C° 0 mm 2 m/s 759 mmHg 66%
    20:00 +27°C° 0 mm 3 m/s 759 mmHg 74%
    21:00 +26°C° 0 mm 3 m/s 759 mmHg 82%
    22:00 +25°C° 0 mm 3 m/s 760 mmHg 83%
    23:00 +24°C° 0 mm 3 m/s 760 mmHg 84%

    Mâine, 26 Iunie, Miercuri

    Timp Temperatura Precipitaţii Vânt Presiune Umiditate
    00:00 +22°C° 0 mm 3 m/s 760 mmHg 85%
    01:00 +22°C° 0 mm 3 m/s 760 mmHg 86%
    02:00 +22°C° 0 mm 3 m/s 760 mmHg 88%
    03:00 +21°C° 0 mm 3 m/s 760 mmHg 89%
    04:00 +21°C° 0 mm 3 m/s 760 mmHg 88%
    05:00 +21°C° 0 mm 4 m/s 760 mmHg 86%
    06:00 +22°C° 0 mm 4 m/s 760 mmHg 85%
    07:00 +23°C° 0 mm 4 m/s 760 mmHg 80%
    08:00 +26°C° 0 mm 5 m/s 760 mmHg 75%
    09:00 +27°C° 0 mm 5 m/s 760 mmHg 70%
    10:00 +29°C° 0 mm 5 m/s 760 mmHg 66%
    11:00 +30°C° 0 mm 5 m/s 760 mmHg 63%
    12:00 +33°C° 0 mm 5 m/s 760 mmHg 60%
    13:00 +33°C° 0 mm 6 m/s 760 mmHg 60%
    14:00 +33°C° 0 mm 6 m/s 760 mmHg 61%
    15:00 +33°C° 0 mm 6 m/s 760 mmHg 61%
    16:00 +33°C° 0 mm 6 m/s 759 mmHg 64%
    17:00 +32°C° 0 mm 6 m/s 759 mmHg 67%
    18:00 +30°C° 0 mm 6 m/s 759 mmHg 70%
    19:00 +29°C° 0 mm 5 m/s 759 mmHg 73%
    20:00 +28°C° 0 mm 5 m/s 760 mmHg 75%
    21:00 +26°C° 0 mm 5 m/s 760 mmHg 78%
    22:00 +26°C° 0 mm 5 m/s 760 mmHg 79%
    23:00 +25°C° 0 mm 5 m/s 760 mmHg 80%

    Poimâine, 27 Iunie, Joi

    Timp Temperatura Precipitaţii Vânt Presiune Umiditate
    00:00 +23°C° 0 mm 5 m/s 760 mmHg 81%
    01:00 +22°C° 0 mm 5 m/s 760 mmHg 82%
    02:00 +22°C° 0 mm 5 m/s 760 mmHg 83%
    03:00 +21°C° 0 mm 5 m/s 760 mmHg 84%
    04:00 +21°C° 0 mm 5 m/s 760 mmHg 82%
    05:00 +21°C° 0 mm 5 m/s 760 mmHg 81%
    06:00 +21°C° 0 mm 5 m/s 760 mmHg 79%
    07:00 +23°C° 0 mm 5 m/s 760 mmHg 75%
    08:00 +25°C° 0 mm 5 m/s 760 mmHg 70%
    09:00 +27°C° 0 mm 5 m/s 761 mmHg 66%
    10:00 +28°C° 0 mm 5 m/s 761 mmHg 62%
    11:00 +29°C° 0 mm 5 m/s 761 mmHg 59%
    12:00 +32°C° 0 mm 5 m/s 760 mmHg 56%
    13:00 +32°C° 0 mm 5 m/s 760 mmHg 55%
    14:00 +32°C° 0 mm 6 m/s 760 mmHg 55%
    15:00 +33°C° 0 mm 6 m/s 760 mmHg 55%
    16:00 +30°C° 0 mm 6 m/s 760 mmHg 56%
    17:00 +29°C° 0 mm 6 m/s 760 mmHg 58%
    18:00 +28°C° 0 mm 6 m/s 760 mmHg 59%
    19:00 +27°C° 0 mm 6 m/s 760 mmHg 58%
    20:00 +25°C° 0 mm 5 m/s 760 mmHg 58%
    21:00 +23°C° 0 mm 5 m/s 761 mmHg 57%
    22:00 +22°C° 0 mm 5 m/s 760 mmHg 56%
    23:00 +21°C° 0 mm 5 m/s 760 mmHg 56%

    28 Iunie, Vineri

    Timp Temperatura Precipitaţii Vânt Presiune Umiditate
    00:00 +21°C° 0 mm 5 m/s 760 mmHg 55%
    01:00 +20°C° 0 mm 4 m/s 760 mmHg 58%
    02:00 +19°C° 0 mm 4 m/s 760 mmHg 60%
    03:00 +19°C° 0 mm 4 m/s 760 mmHg 63%
    04:00 +19°C° 0 mm 4 m/s 760 mmHg 64%
    05:00 +19°C° 0 mm 4 m/s 759 mmHg 64%
    06:00 +19°C° 0 mm 4 m/s 759 mmHg 65%
    07:00 +21°C° 0 mm 4 m/s 759 mmHg 61%
    08:00 +23°C° 0 mm 4 m/s 759 mmHg 57%
    09:00 +25°C° 0 mm 4 m/s 759 mmHg 53%
    10:00 +27°C° 0 mm 5 m/s 759 mmHg 49%
    11:00 +29°C° 0 mm 5 m/s 759 mmHg 45%
    12:00 +30°C° 0 mm 5 m/s 759 mmHg 40%
    13:00 +32°C° 0 mm 5 m/s 759 mmHg 40%
    14:00 +32°C° 0 mm 5 m/s 758 mmHg 41%
    15:00 +32°C° 0 mm 5 m/s 758 mmHg 41%
    16:00 +32°C° 0 mm 5 m/s 758 mmHg 45%
    17:00 +30°C° 0 mm 4 m/s 758 mmHg 48%
    18:00 +29°C° 0 mm 4 m/s 757 mmHg 51%
    19:00 +28°C° 0 mm 4 m/s 758 mmHg 55%
    20:00 +26°C° 0 mm 3 m/s 758 mmHg 59%
    21:00 +25°C° 0 mm 3 m/s 758 mmHg 63%
    22:00 +24°C° 0 mm 3 m/s 758 mmHg 64%
    23:00 +22°C° 0 mm 3 m/s 757 mmHg 66%

    29 Iunie, Sâmbătă

    Timp Temperatura Precipitaţii Vânt Presiune Umiditate
    00:00 +22°C° 0 mm 3 m/s 757 mmHg 67%
    01:00 +21°C° 0 mm 3 m/s 757 mmHg 66%
    02:00 +21°C° 0 mm 2 m/s 756 mmHg 65%
    03:00 +20°C° 0 mm 2 m/s 756 mmHg 65%
    04:00 +20°C° 0 mm 2 m/s 756 mmHg 63%
    05:00 +21°C° 0 mm 3 m/s 756 mmHg 61%
    06:00 +21°C° 0 mm 3 m/s 756 mmHg 59%
    07:00 +24°C° 0 mm 3 m/s 756 mmHg 55%
    08:00 +26°C° 0 mm 3 m/s 756 mmHg 52%
    09:00 +27°C° 0 mm 3 m/s 756 mmHg 48%
    10:00 +29°C° 0 mm 3 m/s 756 mmHg 45%
    11:00 +31°C° 0 mm 3 m/s 755 mmHg 41%
    12:00 +33°C° 0 mm 3 m/s 755 mmHg 38%
    13:00 +34°C° 0 mm 3 m/s 755 mmHg 38%
    14:00 +35°C° 0 mm 3 m/s 754 mmHg 37%
    15:00 +35°C° 0 mm 3 m/s 754 mmHg 37%
    16:00 +35°C° 0 mm 2 m/s 754 mmHg 42%
    17:00 +34°C° 0 mm 2 m/s 754 mmHg 46%
    18:00 +32°C° 0 mm 2 m/s 754 mmHg 50%
    19:00 +30°C° 0 mm 2 m/s 754 mmHg 57%
    20:00 +29°C° 0 mm 2 m/s 754 mmHg 63%
    21:00 +27°C° 0 mm 2 m/s 754 mmHg 70%
    22:00 +26°C° 0 mm 2 m/s 755 mmHg 75%
    23:00 +24°C° 0 mm 3 m/s 755 mmHg 79%

    30 Iunie, Duminică

    Timp Temperatura Precipitaţii Vânt Presiune Umiditate
    00:00 +22°C° 0 mm 3 m/s 755 mmHg 84%
    01:00 +21°C° 0 mm 3 m/s 755 mmHg 82%
    02:00 +21°C° 0 mm 3 m/s 755 mmHg 81%
    03:00 +21°C° 0 mm 3 m/s 755 mmHg 79%
    04:00 +21°C° 0 mm 3 m/s 756 mmHg 74%
    05:00 +20°C° 0 mm 3 m/s 756 mmHg 69%
    06:00 +20°C° 0 mm 3 m/s 756 mmHg 65%
    07:00 +21°C° 0 mm 3 m/s 757 mmHg 61%
    08:00 +24°C° 0 mm 3 m/s 757 mmHg 56%
    09:00 +25°C° 0 mm 3 m/s 757 mmHg 52%
    10:00 +26°C° 0 mm 3 m/s 758 mmHg 47%
    11:00 +27°C° 0 mm 3 m/s 758 mmHg 43%
    12:00 +29°C° 0 mm 3 m/s 758 mmHg 38%
    13:00 +29°C° 0 mm 3 m/s 758 mmHg 39%
    14:00 +29°C° 0 mm 3 m/s 758 mmHg 40%
    15:00 +29°C° 0 mm 4 m/s 758 mmHg 41%
    16:00 +28°C° 0 mm 3 m/s 758 mmHg 45%
    17:00 +27°C° 0 mm 3 m/s 758 mmHg 49%
    18:00 +26°C° 0 mm 3 m/s 758 mmHg 54%
    19:00 +25°C° 0 mm 3 m/s 758 mmHg 60%
    20:00 +22°C° 0 mm 3 m/s 758 mmHg 66%
    21:00 +20°C° 0 mm 3 m/s 758 mmHg 71%
    22:00 +20°C° 0 mm 2 m/s 758 mmHg 74%
    23:00 +19°C° 0 mm 2 m/s 758 mmHg 76%
    Arată mai mult